sat.trackr.live / text

‹ back to catalog

STARLINK-5122

NORAD 54179 · 2022-141Y

PAYLOAD ACTIVE UNKNOWN

§ Identity

Operator
Country
US
Launch date
2022-10-28
Launch site
AFWTR
Launch vehicle
Mass (kg)
RCS (m²)

Purposes: comms

External: N2YO · Heavens-Above · Gunter

§ Orbital elements

Epoch: 2026-05-25T00:40:44.745024Z

Period
95.44 min
Inclination
53.2128°
Eccentricity
0.0001372
Mean motion
15.08844873 rev/d
Perigee alt
538.8 km
Apogee alt
540.7 km
Semi-major
6,917.9 km
B*
-1.0316e-4
RAAN
21.3154°
Arg perigee
96.6258°
Mean anomaly
263.4890°
Rev number
19,738

§ Raw data

STARLINK-51221 54179U 22141Y   26145.02829566 -.00001930  00000+0 -10316-3 0  99902 54179  53.2128  21.3154 0001372  96.6258 263.4890 15.08844873197382

JSON: /api/v1/satellites/54179 · /tle

For live sub-satellite position, see the globe view (requires WebGL).

§ Visibility from observer

Set your observer location to see the next 7 days of passes ≥ 10°. The values pass through the URL so the page stays shareable.

No JS? Fill the form by hand. The geolocation button needs JavaScript.